Simultaneous Nadir Overpasses (SNOs) Predictions

Prediction of SNOs between AQUA and NOAA-19 Satellite Orbit:

Table of predicted SNOs for the next 14.0 days since TLE Epoch: 1/8/2022
Index Date (AQUA) Time (AQUA) Lat,Lon (AQUA) SZA (AQUA ) Date (NOAA-19) Time (NOAA-19) Lat,Lon (NOAA-19) SZA (NOAA-19 ) Distance(km) Time Diff (sec)
1 01/08/2022 18:44:41 78.11,-120.24 100.94 01/08/2022 18:44:30 78.13,-120.25 100.95 1.20 11
2 01/08/2022 19:34:16 -78.49, 45.52 78.59 01/08/2022 19:35:20 -78.51, 49.43 78.85 86.61 64
3 01/11/2022 00:18:25 -78.12, -23.69 79.37 01/11/2022 00:17:34 -78.10, -23.56 79.38 3.40 51
4 01/11/2022 01:07:52 78.13, 143.91 100.64 01/11/2022 01:08:33 78.15, 143.95 100.64 2.44 41
5 01/13/2022 06:41:36 -78.13,-119.54 79.71 01/13/2022 06:41:37 -78.10,-119.49 79.74 3.52 1
6 01/15/2022 12:15:19 78.08, -22.73 99.85 01/15/2022 12:14:41 78.10, -22.67 99.88 2.86 38
7 01/15/2022 13:04:46 -78.11, 144.78 80.13 01/15/2022 13:05:39 -78.14, 144.79 80.11 3.17 53
8 01/17/2022 17:48:59 -77.92, 74.60 80.78 01/17/2022 17:47:50 -77.82, 72.56 80.69 48.75 69
9 01/17/2022 18:38:30 78.11,-118.64 99.46 01/17/2022 18:38:44 78.12,-118.51 99.46 3.31 14
10 01/20/2022 00:12:13 -78.08, -21.94 81.03 01/20/2022 00:11:46 -78.09, -21.88 81.02 1.46 27



Historial Predications of SNOs between AQUA and NOAA-19
